Location: Tel Aviv
(32.0670°N, 34.7670°E)
Time: 19:03:55
(UTC+03:00)

Vanguard 2 Rocket - Pass Details

Date: 25 January 2022
Orbit: 553 x 3323 km, 32.9° (Epoch: 24 May)

Event Time Altitude Azimuth Distance (km) Brightness Sun altitude
Exits shadow 05:27:02 18° 280° (W) 5,414 10.1 -15.3°
Maximum altitude 05:44:21 84° 196° (SSW) 3,294 9.7 -11.7°
Drops below altitude 10° 06:02:10 10° 111° (ESE) 5,362 12.6 -8.1°
Sets 06:05:40 0° 110° (ESE) 6,088 13.8 -7.4°
